Regional Weather Roundup
Issued by NWS

Home | Current Version | Previous Version | Graphics & Text | Print | Product List | Glossary On
Versions: 1 2 3 4 5 6 7 8 9 10 11 12 13 14 15 16 17 18 19 20 21 22 23 24 25 26 27 28 29 30 31 32 33 34 35 36 37 38 39 40 41 42 43 44 45 46 47 48 49 50
000
ASUS43 KIND 121459
RWRIN

WEATHER ROUNDUP FOR INDIANA
NATIONAL WEATHER SERVICE INDIANAPOLIS IN
1100 AM EDT SAT JUL 12 2014

NOTE: "FAIR" INDICATES FEW OR NO CLOUDS BELOW 12,000 FEET WITH NO
SIGNIFICANT WEATHER AND/OR OBSTRUCTIONS TO VISIBILITY.

* - STATION DOES NOT REPORT WEATHER SUCH AS PRECIPITATION OR FOG.

+ - STATION NOT QUALITY CONTROLLED BY THE NATIONAL WEATHER SERVICE.
    USE DATA WITH CAUTION...ESPECIALLY DEWPOINT AND RELATIVE
    HUMIDITY OBSERVATIONS.

INZ001>003-010>013-019-020-121600-
NORTHWEST INDIANA

CITY           SKY/WX    TMP DP  RH WIND       PRES   REMARKS
GARY /AIRPORT/ LGT RAIN  72  68  88 SE5       30.06S
MONTICELLO +   LGT RAIN  70  67  90 S6        30.09F
VALPARAISO     LGT RAIN  69  67  93 S6        30.07F FOG

$$

LMZ046-743>745-121600-
SOUTHERN LAKE MICHIGAN

STATION/POSITION TIME  TEMP WIND        PRES
                       AIR  DIR/SP/G
                 (UTC) (F)  (DEG/KT/KT) (MB)
MICHIGAN CITY    1400   71  160/ 10/ 14   N/A

$$

INZ004-005-014>016-021>024-121600-
NORTH CENTRAL INDIANA

CITY           SKY/WX    TMP DP  RH WIND       PRES   REMARKS
GOSHEN         PTSUNNY   79  65  62 S13       30.09F
SOUTH BEND     CLOUDY    78  65  63 S12       30.08F

$$

INZ006>009-017-018-025>027-121600-
NORTHEAST INDIANA

CITY           SKY/WX    TMP DP  RH WIND       PRES   REMARKS
ANGOLA *+      MOSUNNY   79  64  61 SW8       30.12F
FORT WAYNE     CLOUDY    80  62  54 SW10      30.14F

$$

INZ028-029-035-036-043>045-051>053-121600-
WEST CENTRAL INDIANA

CITY           SKY/WX    TMP DP  RH WIND       PRES   REMARKS
GREENCASTLE +  CLOUDY    72  64  78 CALM      30.16F
LAFAYETTE      LGT RAIN  71  67  87 SW8       30.11F
TERRE HAUTE    LGT RAIN  70  67  90 SW6       30.15S FOG

$$

INZ030>032-037>040-046>048-054>057-064-065-121600-
CENTRAL INDIANA

CITY           SKY/WX    TMP DP  RH WIND       PRES   REMARKS
COLUMBUS       PTSUNNY   77  64  65 S9        30.17F
INDIANAPOLIS   CLOUDY    76  64  66 SW12      30.15S
-EAGLE CREEK   CLOUDY    77  64  64 SW7       30.15S
KOKOMO *+      PTSUNNY   79  66  65 SW15      30.13S
MT COMFORT *+  PTSUNNY   77  68  73 S7        30.16S
SHELBYVILLE    PTSUNNY   79  66  64 S9        30.16S

$$

INZ033-034-041-042-049-050-058-059-121600-
EAST CENTRAL INDIANA

CITY           SKY/WX    TMP DP  RH WIND       PRES   REMARKS
MUNCIE         MOSUNNY   78  61  55 S12G18    30.15F

$$

INZ060-061-067>069-081>083-085>088-121600-
SOUTHWEST INDIANA

CITY           SKY/WX    TMP DP  RH WIND       PRES   REMARKS
EVANSVILLE     CLOUDY    80  66  62 SW9       30.17S
HUNTINGBURG *+ CLOUDY    81  66  61 SW9       30.18S

$$

INZ062-063-066-070>080-084-089>092-121600-
SOUTH CENTRAL AND SOUTHEAST INDIANA

CITY           SKY/WX    TMP DP  RH WIND       PRES   REMARKS
BLOOMINGTON    CLOUDY    77  66  68 SW9       30.18R
SEYMOUR +      CLOUDY    75  50  41 S5        30.17

$$



USA.gov is the U.S. government's official web portal to all federal, state and local government web resources and services.